TimeEST,TemperatureF,Dew PointF,Humidity,Sea Level PressureIn,VisibilityMPH,Wind Direction,Wind SpeedMPH,Gust SpeedMPH,PrecipitationIn,Events,Conditions,WindDirDegrees,DateUTC
12:53 AM,73.0,63.0,71,30.08,10.0,North,3.5,-,N/A,,Mostly Cloudy,360,2012-11-14 05:53:00
1:53 AM,71.1,64.0,78,30.06,10.0,NNE,4.6,17.3,0.10,Rain,Light Rain,30,2012-11-14 06:53:00
2:53 AM,69.1,64.9,87,30.05,10.0,Calm,Calm,-,0.00,,Scattered Clouds,0,2012-11-14 07:53:00
3:53 AM,66.0,64.0,93,30.06,10.0,WNW,5.8,-,N/A,,Scattered Clouds,300,2012-11-14 08:53:00
4:53 AM,66.9,64.9,93,30.06,10.0,Calm,Calm,-,N/A,,Scattered Clouds,0,2012-11-14 09:53:00
5:53 AM,66.9,64.9,93,30.06,10.0,NW,3.5,-,0.01,,Scattered Clouds,320,2012-11-14 10:53:00
6:53 AM,66.0,64.0,93,30.08,10.0,NNW,4.6,-,N/A,,Scattered Clouds,330,2012-11-14 11:53:00
7:53 AM,71.1,66.9,87,30.10,10.0,Calm,Calm,-,N/A,,Mostly Cloudy,0,2012-11-14 12:53:00
8:20 AM,73.4,68.0,83,30.11,10.0,NW,5.8,-,N/A,,Mostly Cloudy,310,2012-11-14 13:20:00
8:44 AM,78.8,66.2,65,30.12,10.0,ENE,9.2,-,N/A,,Mostly Cloudy,60,2012-11-14 13:44:00
8:53 AM,78.1,66.9,68,30.12,10.0,East,9.2,-,N/A,,Mostly Cloudy,80,2012-11-14 13:53:00
9:53 AM,79.0,66.0,64,30.12,10.0,East,10.4,-,N/A,,Mostly Cloudy,80,2012-11-14 14:53:00
10:53 AM,80.1,64.9,60,30.11,10.0,East,13.8,-,0.00,,Mostly Cloudy,80,2012-11-14 15:53:00
11:53 AM,80.1,64.9,60,30.09,10.0,ENE,15.0,-,N/A,,Mostly Cloudy,70,2012-11-14 16:53:00
12:53 PM,80.1,64.0,58,30.07,10.0,ENE,12.7,-,N/A,,Mostly Cloudy,70,2012-11-14 17:53:00
1:53 PM,81.0,64.9,58,30.06,10.0,East,9.2,-,N/A,,Mostly Cloudy,80,2012-11-14 18:53:00
2:53 PM,78.1,64.9,64,30.07,10.0,East,10.4,-,N/A,,Mostly Cloudy,80,2012-11-14 19:53:00
3:53 PM,79.0,64.9,62,30.06,10.0,East,12.7,-,N/A,,Mostly Cloudy,90,2012-11-14 20:53:00
4:53 PM,78.1,64.0,62,30.06,10.0,East,13.8,-,N/A,,Mostly Cloudy,90,2012-11-14 21:53:00
5:53 PM,77.0,62.1,60,30.07,10.0,NE,6.9,-,N/A,,Mostly Cloudy,50,2012-11-14 22:53:00
6:53 PM,75.9,62.1,62,30.08,10.0,ENE,6.9,-,N/A,,Scattered Clouds,70,2012-11-14 23:53:00
7:53 PM,75.9,62.1,62,30.09,10.0,East,10.4,-,N/A,,Scattered Clouds,80,2012-11-15 00:53:00
8:53 PM,75.9,62.1,62,30.10,10.0,East,9.2,-,N/A,,Partly Cloudy,80,2012-11-15 01:53:00
9:53 PM,75.9,62.1,62,30.10,10.0,East,8.1,-,N/A,,Partly Cloudy,80,2012-11-15 02:53:00
10:53 PM,75.0,63.0,66,30.10,10.0,East,8.1,-,N/A,,Scattered Clouds,80,2012-11-15 03:53:00
11:53 PM,75.0,62.1,64,30.09,10.0,East,6.9,-,N/A,,Scattered Clouds,80,2012-11-15 04:53:00